Bourg, LA

3:33 PM CST on February 22, 2017 (GMT -0600)
Houma-terrebonne

Weather History for KHUM - October, 2011

Change the Weather History Date:

Sunday, October 16, 2011

  Actual Average Record
Temperature  
Mean Temperature 72 °F -  
Max Temperature 86 °F 80 °F 91 °F (1947)
Min Temperature 57 °F 59 °F 44 °F (1943)
Cooling Degree Days 6    
Growing Degree Days 22 (Base 50)    
Moisture  
Dew Point 62 °F    
Average Humidity 89    
Maximum Humidity 100    
Minimum Humidity 43    
Precipitation  
Precipitation 0.00 in - - ()
Sea Level Pressure  
Sea Level Pressure 30.06 in    
Wind  
Wind Speed 2 mph (NE)    
Max Wind Speed 14 mph    
Max Gust Speed -    
Visibility 6 miles    
Events Fog    
Averages and records for this station are not official NWS values.
T = Trace of Precipitation, MM = Missing Value Source: NWS Daily Summary

Daily Weather History Graph

Daily Weather History Graph

Search for Another Location

Airport or City:

Trip Planner

Search our weather history database for the weather conditions in past years. The results will help you decide how hot, cold, wet, or windy it might be!

Date:

Astronomy

Oct. 16, 2011 Rise Set
Actual Time 7:04 AM CDT 6:31 PM CDT
Civil Twilight 6:40 AM CDT 6:55 PM CDT
Nautical Twilight 6:12 AM CDT 7:23 PM CDT
Astronomical Twilight 5:45 AM CDT 7:50 PM CDT
Moon 9:36 PM CDT (10/16) 11:03 AM CDT (10/16)
Length of Visible Light 12h 14m
Length of Day
11h 26m
Waning Gibbous, 82% of the Moon is Illuminated
Oct 16
Waning Gibbous
Oct 19
Last Quarter
Oct 26
New
Nov 2
First Quarter
Nov 10
Full

Hourly Weather History & Observations

Time (CDT) Temp. Heat Index Dew Point Humidity Pressure Visibility Wind Dir Wind Speed Gust Speed Precip Events Conditions
12:15 AM 60.8 °F - 60.8 °F 100% 30.09 in 7.0 mi Calm Calm - N/A   Clear
12:35 AM 59.0 °F - 59.0 °F 100% 30.08 in 7.0 mi Calm Calm - N/A   Clear
12:55 AM 59.0 °F - 59.0 °F 100% 30.08 in 7.0 mi Calm Calm - N/A   Clear
1:15 AM 59.0 °F - 59.0 °F 100% 30.08 in 7.0 mi Calm Calm - N/A   Clear
1:35 AM 59.0 °F - 59.0 °F 100% 30.08 in 7.0 mi Calm Calm - N/A   Clear
1:55 AM 59.0 °F - 59.0 °F 100% 30.07 in 7.0 mi Calm Calm - N/A   Clear
2:15 AM 57.2 °F - 57.2 °F 100% 30.07 in 5.0 mi Calm Calm - N/A   Clear
2:35 AM 59.0 °F - 59.0 °F 100% 30.07 in 5.0 mi Calm Calm - N/A   Clear
2:55 AM 59.0 °F - 59.0 °F 100% 30.07 in 5.0 mi Calm Calm - N/A   Clear
3:15 AM 57.2 °F - 57.2 °F 100% 30.07 in 4.0 mi North 4.6 mph - N/A   Clear
3:35 AM 57.2 °F - 57.2 °F 100% 30.07 in 3.0 mi Calm Calm - N/A   Clear
3:55 AM 59.0 °F - 59.0 °F 100% 30.07 in 0.8 mi Calm Calm - N/A   Mist
4:15 AM 59.0 °F - 59.0 °F 100% 30.07 in 7.0 mi Calm Calm - N/A   Clear
4:35 AM 59.0 °F - 59.0 °F 100% 30.07 in 0.5 mi Calm Calm - N/A Fog Fog
4:55 AM 59.0 °F - 59.0 °F 100% 30.07 in 0.8 mi Calm Calm - N/A   Mist
5:15 AM 59.0 °F - 59.0 °F 100% 30.07 in 4.0 mi Calm Calm - N/A   Clear
5:35 AM 59.0 °F - 59.0 °F 100% 30.08 in 3.0 mi Calm Calm - N/A   Clear
5:50 AM 60.8 °F - 60.8 °F 100% 30.05 in 5.0 mi NNE 4.6 mph - N/A   Clear
5:55 AM 60.8 °F - 60.8 °F 100% 30.08 in 4.0 mi Calm Calm - N/A   Clear
6:50 AM 60.8 °F - 60.8 °F 100% 30.09 in 5.0 mi North 3.5 mph - N/A   Clear
7:50 AM 62.6 °F - 62.6 °F 100% 30.10 in 6.0 mi NNW 3.5 mph - N/A   Clear
8:50 AM 66.2 °F - 66.2 °F 100% 30.11 in 5.0 mi NNE 4.6 mph - N/A   Clear
9:50 AM 73.4 °F - 69.8 °F 88% 30.12 in 7.0 mi NNE 5.8 mph - N/A   Clear
10:50 AM 78.8 °F - 69.8 °F 74% 30.11 in 7.0 mi NE 11.5 mph - N/A   Clear
11:50 AM 82.4 °F 84.6 °F 66.2 °F 58% 30.11 in 7.0 mi NE 11.5 mph - N/A   Clear
12:50 PM 86.0 °F 86.1 °F 60.8 °F 43% 30.07 in 7.0 mi ESE 11.5 mph - N/A   Clear
1:50 PM 86.0 °F 87.3 °F 64.4 °F 48% 30.04 in 7.0 mi ESE 11.5 mph - N/A   Clear
2:50 PM 86.0 °F 86.6 °F 62.6 °F 45% 30.03 in 7.0 mi ENE 13.8 mph - N/A   Clear
3:50 PM 84.2 °F 85.0 °F 62.6 °F 48% 30.02 in 7.0 mi ENE 13.8 mph - N/A   Clear
4:50 PM 84.2 °F 85.0 °F 62.6 °F 48% 30.02 in 7.0 mi East 10.4 mph - N/A   Clear
5:50 PM 80.6 °F 82.3 °F 64.4 °F 58% 30.02 in 7.0 mi ENE 10.4 mph - N/A   Clear
6:50 PM 80.6 °F 82.3 °F 64.4 °F 58% 30.02 in 7.0 mi ENE 10.4 mph - N/A   Clear
7:15 PM 69.8 °F - 64.4 °F 83% 30.01 in 10.0 mi ESE 3.5 mph - N/A   Clear
7:35 PM 68.0 °F - 62.6 °F 83% 30.01 in 10.0 mi East 3.5 mph - N/A   Clear
7:55 PM 68.0 °F - 64.4 °F 88% 30.02 in 10.0 mi Calm Calm - N/A   Clear
8:15 PM 68.0 °F - 64.4 °F 88% 30.02 in 10.0 mi Calm Calm - N/A   Clear
8:35 PM 66.2 °F - 64.4 °F 94% 30.02 in 10.0 mi Calm Calm - N/A   Clear
8:55 PM 66.2 °F - 64.4 °F 94% 30.03 in 7.0 mi Calm Calm - N/A   Clear
9:15 PM 64.4 °F - 64.4 °F 100% 30.03 in 10.0 mi Calm Calm - N/A   Clear
9:35 PM 64.4 °F - 64.4 °F 100% 30.04 in 7.0 mi Calm Calm - N/A   Clear
9:55 PM 64.4 °F - 64.4 °F 100% 30.04 in 7.0 mi Calm Calm - N/A   Clear
10:35 PM 64.4 °F - 64.4 °F 100% 30.04 in 7.0 mi Calm Calm - N/A   Clear
10:55 PM 64.4 °F - 64.4 °F 100% 30.04 in 7.0 mi Calm Calm - N/A   Clear
11:15 PM 64.4 °F - 64.4 °F 100% 30.03 in 7.0 mi Calm Calm - N/A   Clear
11:35 PM 64.4 °F - 64.4 °F 100% 30.03 in 7.0 mi Calm Calm - N/A   Clear
11:55 PM 62.6 °F - 62.6 °F 100% 30.02 in 2.5 mi Calm Calm - N/A   Clear